Back to catalog

KUIPER-00127

AliveCommunicationsLEO
NORAD 65956·PAYLOAD·🇺🇸 United States

Launched Oct 14, 2025 from Cape Canaveral Space Force Station

Loading…

Next Passes (next 24 hours)

TLE

FreshSource: CelesTrak SupGP

Epoch: Sep 14, 2026, 12:45 UTC

1 65956C 25228K   26257.53135417  .00003992  00000+0  52249-3 0  2575
2 65956  51.8993 238.0076 0000779  46.5065 300.8850 14.79930575    18

Track KUIPER-00127 in real time with AllMySat

Download on the App Store